Location: Unspecified
(48.5670°N, 0.0000°E)
Time: 08:02:09
(UTC+00:00)

Transit 4A - Pass Details

Date: 27 August 2019
Orbit: 866 x 978 km, 66.8° (Epoch: 16 October)

Event Time Altitude Azimuth Distance (km) Brightness Sun altitude
Rises 20:27:41 0° 287° (WNW) 3,679 12.5 -15.0°
Reaches altitude 10° 20:31:24 10° 308° (NW) 2,724 11.7 -15.5°
Maximum altitude 20:35:16 16° 346° (NNW) 2,281 10.6 -16.0°
Drops below altitude 10° 20:39:06 10° 23° (NNE) 2,695 10.5 -16.5°
Sets 20:42:45 0° 45° (NE) 3,621 10.9 -17.0°
